DW6250 Weather Reports


Display with metric or nautical units.
time (UTC)temp
F
wind
direction
speed
MPH
gust
MPH
rain 1hr
in
rain 24hr
in
rain mn
in
humidity
%
barometer
mb
20190818030118 87 360 1.0 6.0 0.00 0.00 0.00 52 1007.9
20190818024619 88 10 0.0 5.0 0.00 0.00 0.00 51 1007.7
20190818023124 88 11 2.0 5.0 0.00 0.00 0.00 50 1007.6
20190818021635 89 16 0.0 6.0 0.00 0.00 0.00 49 1007.3
20190818020117 90 40 3.0 7.0 0.00 0.00 0.00 48 1007.0
20190818014544 91 138 0.0 3.0 0.00 0.00 0.00 48 1006.8
20190818013100 92 138 0.0 3.0 0.00 0.00 0.00 47 1006.5
20190818011615 93 138 1.0 8.0 0.00 0.00 0.00 47 1006.2
20190818010117 94 139 1.0 6.0 0.00 0.00 0.00 45 1005.8
20190818004557 95 140 1.0 7.0 0.00 0.00 0.00 45 1005.7
20190818003042 95 114 2.0 8.0 0.00 0.00 0.00 45 1005.5
20190818001616 96 131 0.0 4.0 0.00 0.00 0.00 45 1005.4
20190818000106 96 89 1.0 6.0 0.00 0.00 0.00 45 1005.4
20190817234540 96 89 2.0 6.0 0.00 0.00 0.00 45 1005.5
20190817233143 95 38 3.0 9.0 0.00 0.00 0.00 45 1005.7
20190817231555 96 105 5.0 9.0 0.00 0.00 0.00 45 1005.9
20190817230038 96 82 1.0 9.0 0.00 0.00 0.00 45 1006.1
20190817224606 96 113 1.0 10.0 0.00 0.00 0.00 44 1006.2
20190817223023 97 105 5.0 10.0 0.00 0.00 0.00 43 1006.4
20190817221546 97 5 3.0 12.0 0.00 0.00 0.00 40 1006.6
20190817220012 97 22 5.0 11.0 0.00 0.00 0.00 40 1006.8
20190817214519 97 17 5.0 13.0 0.00 0.00 0.00 40 1007.0
20190817213014 97 25 6.0 10.0 0.00 0.00 0.00 40 1007.2
20190817211519 98 11 5.0 12.0 0.00 0.00 0.00 40 1007.2
20190817210018 97 355 8.0 15.0 0.00 0.00 0.00 40 1007.4
20190817204706 97 55 6.0 14.0 0.00 0.00 0.00 41 1007.8
20190817203210 96 46 6.0 13.0 0.00 0.00 0.00 41 1007.9
20190817201624 96 334 7.0 14.0 0.00 0.00 0.00 41 1008.0
20190817200128 97 77 6.0 11.0 0.00 0.00 0.00 40 1008.2
20190817194606 96 26 6.0 12.0 0.00 0.00 0.00 42 1008.4
20190817193243 96 5 4.0 12.0 0.00 0.00 0.00 42 1008.7
20190817191657 95 45 6.0 12.0 0.00 0.00 0.00 44 1008.8
20190817190111 96 10 7.0 12.0 0.00 0.00 0.00 44 1008.9
20190817184602 95 52 5.0 10.0 0.00 0.00 0.00 44 1009.0
20190817183315 96 59 5.0 14.0 0.00 0.00 0.00 44 1009.2
20190817181730 95 298 5.0 10.0 0.00 0.00 0.00 44 1009.3
20190817180129 95 349 5.0 11.0 0.00 0.00 0.00 46 1009.6
20190817174841 94 37 3.0 10.0 0.00 0.00 0.00 48 1009.7
20190817173132 94 52 1.0 9.0 0.00 0.00 0.00 47 1009.8
20190817171645 93 348 3.0 9.0 0.00 0.00 0.00 48 1009.8
20190817170049 92 48 4.0 12.0 0.00 0.00 0.00 49 1009.8
20190817164609 92 321 2.0 7.0 0.00 0.00 0.00 49 1009.8
20190817163102 91 44 2.0 8.0 0.00 0.00 0.00 51 1009.8
20190817161613 90 13 3.0 7.0 0.00 0.00 0.00 51 1009.8
20190817160035 89 325 2.0 7.0 0.00 0.00 0.00 52 1009.9
20190817154540 90 302 3.0 8.0 0.00 0.00 0.00 51 1009.9
20190817153036 90 45 4.0 7.0 0.00 0.00 0.00 50 1010.0
20190817151533 89 360 3.0 7.0 0.00 0.00 0.00 51 1010.0
20190817150037 88 344 1.0 6.0 0.00 0.00 0.00 53 1009.9
20190817144513 86 343 3.0 6.0 0.00 0.00 0.00 55 1009.8
20190817143017 85 344 2.0 4.0 0.00 0.00 0.00 57 1009.8
20190817141506 84 344 2.0 5.0 0.00 0.00 0.00 58 1009.7
20190817140012 83 344 1.0 5.0 0.00 0.00 0.00 59 1009.6
20190817134504 82 345 2.0 5.0 0.00 0.00 0.00 60 1009.6
20190817133007 81 5 2.0 4.0 0.00 0.00 0.00 61 1009.4
20190817131514 81 28 2.0 4.0 0.00 0.00 0.00 61 1009.2
20190817130013 81 24 2.0 3.0 0.00 0.00 0.00 60 1009.1
20190817124502 83 348 1.0 2.0 0.00 0.00 0.00 58 1008.9
20190817123143 83 348 1.0 3.0 0.00 0.00 0.00 59 1008.8
20190817121639 82 348 1.0 3.0 0.00 0.00 0.00 60 1008.8
20190817120139 81 348 1.0 2.0 0.00 0.00 0.00 61 1008.8
20190817114642 81 348 0.0 0.0 0.00 0.00 0.00 62 1008.9
20190817113207 80 348 0.0 0.0 0.00 0.00 0.00 64 1008.8
20190817111626 79 348 0.0 0.0 0.00 0.00 0.00 65 1008.9
20190817110149 79 348 1.0 2.0 0.00 0.00 0.00 64 1008.9
20190817104710 79 348 0.0 2.0 0.00 0.00 0.00 63 1008.8
20190817103150 80 348 0.0 0.0 0.00 0.00 0.00 63 1008.8
20190817101621 80 348 0.0 0.0 0.00 0.00 0.00 63 1009.0
20190817100122 81 348 0.0 0.0 0.00 0.00 0.00 61 1009.0
20190817094655 80 348 0.0 0.0 0.00 0.00 0.00 62 1009.1
20190817093155 80 348 0.0 0.0 0.00 0.00 0.00 62 1009.3
20190817091658 81 348 0.0 0.0 0.00 0.00 0.00 62 1009.3
20190817090108 81 348 0.0 0.0 0.00 0.00 0.00 62 1009.5
20190817084624 81 348 0.0 0.0 0.00 0.00 0.00 62 1009.5
20190817083103 81 348 0.0 0.0 0.00 0.00 0.00 61 1009.7
20190817081617 82 348 0.0 0.0 0.00 0.00 0.00 60 1009.8
20190817080137 82 348 0.0 0.0 0.00 0.00 0.00 59 1009.8
20190817074605 82 348 0.0 0.0 0.00 0.00 0.00 58 1009.8
20190817073117 83 348 0.0 0.0 0.00 0.00 0.00 58 1009.9
20190817071604 82 348 0.0 2.0 0.00 0.00 0.00 58 1010.0
20190817070053 83 348 0.0 0.0 0.00 0.00 0.00 57 1010.0
20190817064554 83 348 0.0 0.0 0.00 0.00 0.00 57 1010.1
20190817063117 83 348 0.0 0.0 0.00 0.00 0.00 57 1010.3
20190817061556 83 348 0.0 0.0 0.00 0.00 0.00 57 1010.4
20190817060100 83 348 0.0 0.0 0.00 0.00 0.00 57 1010.6
20190817054556 83 348 0.0 0.0 0.00 0.00 0.00 57 1010.6
20190817053038 84 348 0.0 0.0 0.00 0.00 0.00 55 1010.6
20190817051531 85 348 0.0 0.0 0.00 0.00 0.00 54 1010.6
20190817050048 85 348 0.0 0.0 0.00 0.00 0.00 54 1010.6
20190817044547 85 348 0.0 0.0 0.00 0.00 0.00 52 1010.6
20190817043054 86 348 0.0 0.0 0.00 0.00 0.00 52 1010.5
20190817041539 86 348 0.0 0.0 0.00 0.00 0.00 53 1010.3
20190817040041 86 348 0.0 1.0 0.00 0.00 0.00 52 1010.1
20190817034544 86 348 0.0 1.0 0.00 0.00 0.00 52 1009.8
20190817033030 86 348 0.0 2.0 0.00 0.00 0.00 52 1009.8
20190817031527 87 348 1.0 4.0 0.00 0.00 0.00 52 1009.7